Home > Weather > Nannestad > Past weeks

Flag for Norway Past Weather in Nannestad, Norway — Yesterday and Last 2 Weeks

Now
61 °F

Sunny.


Feels Like: 61 °F
Forecast: 55 / 65 °F
Wind: 9 mph from South

Location: Oslo Gardermoen Airport

Current Time: Jul 27, 2016 at 9:17:48 PM

Latest Report: Jul 27, 2016 at 8:50 PM


Visibility: 10 mi

Pressure: 29.86 "Hg

Humidity: 63%

Dew Point: 48 °F

Location of NannestadLocation

Past Weather in Nannestad — Graph

°F

Nannestad Temperature Yesterday

Maximum temperature yesterday: 68 °F (at 12:20 PM)
Minimum temperature yesterday: 57 °F (at 11:50 PM)
Average temperature yesterday: 63 °F

High & Low Weather Summary for the Past Weeks

 TemperatureHumidityPressure
High79 °F (Jul 21, 4:50 PM)100% (Jul 13, 1:20 AM)30.12 "Hg (Jul 13, 1:20 AM)
Low46 °F (Jul 19, 4:20 AM)35% (Jul 16, 5:50 PM)29.50 "Hg (Jul 12, 7:20 PM)
Average63 °F68%29.93 "Hg
* Reported Jul 12 7:20 PM — Jul 27 7:50 PM, Nannestad, Weather by CustomWeather, © 2016

Note: Actual official high and low records may vary slightly from our data, if they occured in-between our weather recording intervals... More about our weather records

Advertising

Nannestad Weather History for the Previous 24 Hours

Scroll right to see more
 ConditionsComfort  
Time TempWeatherWind HumidityBarometerVisibility
7:50 PM
Wed, Jul 27
64 °FPassing clouds.12 mph56%29.86 "HgN/A
7:20 PM63 °FPartly sunny.8 mph64%29.86 "HgN/A
6:20 PM63 °FScattered showers. Broken clouds.10 mph64%29.89 "HgN/A
5:50 PM63 °FScattered showers. Partly sunny.9 mph64%29.89 "HgN/A
5:20 PM63 °FSprinkles. Partly sunny.6 mph64%29.89 "HgN/A
4:50 PM63 °FScattered showers. Broken clouds.8 mph64%29.89 "HgN/A
4:20 PM64 °FScattered showers. Broken clouds.12 mph56%29.89 "HgN/A
3:50 PM66 °FBroken clouds.16 mph52%29.92 "HgN/A
3:20 PM66 °FBroken clouds.16 mph52%29.92 "HgN/A
2:50 PM68 °FScattered clouds.17 mph49%29.92 "HgN/A
2:20 PM68 °FScattered clouds.14 mph46%29.92 "HgN/A
1:50 PM68 °FPartly sunny.17 mph46%29.92 "HgN/A
1:20 PM66 °FBroken clouds.14 mph49%29.92 "HgN/A
12:50 PM66 °FBroken clouds.15 mph52%29.95 "HgN/A
12:20 PM66 °FPartly sunny.15 mph46%29.95 "HgN/A
11:50 AM66 °FPartly sunny.14 mph52%29.95 "HgN/A
11:20 AM63 °FBroken clouds.7 mph73%29.95 "HgN/A
10:50 AM63 °FPartly sunny.8 mph73%29.95 "HgN/A
10:20 AM61 °FPartly sunny.8 mph77%29.95 "HgN/A
9:50 AM59 °FBroken clouds.7 mph82%29.95 "HgN/A
9:20 AM57 °FPartly sunny.6 mph88%29.95 "HgN/A
8:50 AM55 °FBroken clouds.5 mph94%29.95 "HgN/A
8:20 AM55 °FPartly sunny.No wind94%29.95 "HgN/A
7:50 AM55 °FPartly sunny.No wind94%29.95 "HgN/A
7:20 AM54 °FPartly sunny.No wind100%29.95 "Hg1 mi
6:50 AM54 °FCool.No wind94%29.95 "Hg1 mi
6:20 AM54 °FFog.1 mph94%29.95 "Hg0 mi
5:50 AM54 °FFog.2 mph94%29.95 "Hg1 mi
5:20 AM54 °FCool.1 mph94%29.95 "Hg0 mi
4:50 AM54 °FCool.1 mph94%29.95 "Hg1 mi
4:20 AM54 °FCool.No wind94%29.95 "Hg2 mi
3:50 AM54 °FCool.2 mph94%29.95 "Hg4 mi
3:20 AM52 °FCool.2 mph94%29.95 "Hg1 mi
2:50 AM54 °FCool.No wind94%29.92 "Hg3 mi
2:20 AM54 °FPassing clouds.No wind94%29.92 "HgN/A
1:50 AM54 °FPassing clouds.2 mph94%29.92 "HgN/A
1:20 AM54 °FPassing clouds.2 mph94%29.92 "HgN/A
12:50 AM55 °FPassing clouds.No wind88%29.92 "HgN/A
12:20 AM57 °FPassing clouds.No wind94%29.92 "HgN/A
11:50 PM
Tue, Jul 26
57 °FPassing clouds.No wind94%29.92 "HgN/A
11:20 PM59 °FPassing clouds.1 mph88%29.92 "HgN/A
10:50 PM59 °FSunny.1 mph88%29.92 "Hg10 mi
10:20 PM59 °FSunny.6 mph82%29.92 "Hg10 mi
9:50 PM61 °FPassing clouds.3 mph83%29.92 "HgN/A
9:20 PM61 °FPassing clouds.5 mph88%29.92 "HgN/A
Weather by CustomWeather, © 2016

See weather overviewHow to use our weather pages